Time,TemperatureF,DewpointF,PressureIn,WindDirection,WindDirectionDegrees,WindSpeedMPH,WindSpeedGustMPH,Humidity,HourlyPrecipIn,Conditions,Clouds,dailyrainin,SolarRadiationWatts/m^2,SoftwareType,DateUTC
2013-08-29 00:00:00,72.3,71.7,29.83,SE,138,0.0,0.0,98,0.00,,,0.00,0,Wunderground v.1.15,2013-08-29 04:00:00,
2013-08-29 00:10:00,72.2,71.6,29.83,SE,138,0.0,0.0,98,0.00,,,0.00,0,Wunderground v.1.15,2013-08-29 04:10:00,
2013-08-29 00:20:00,72.0,71.4,29.83,SE,138,0.0,0.0,98,0.00,,,0.00,0,Wunderground v.1.15,2013-08-29 04:20:00,
2013-08-29 00:30:00,71.8,71.2,29.83,SE,138,0.0,0.0,98,0.00,,,0.00,0,Wunderground v.1.15,2013-08-29 04:30:00,
2013-08-29 00:40:00,71.9,71.3,29.83,SE,138,0.0,0.0,98,0.00,,,0.00,0,Wunderground v.1.15,2013-08-29 04:40:00,
2013-08-29 00:50:00,72.1,71.5,29.83,SE,138,0.0,0.0,98,0.00,,,0.00,0,Wunderground v.1.15,2013-08-29 04:50:00,
2013-08-29 01:00:00,72.0,71.4,29.83,NNW,347,0.0,0.0,98,0.00,,,0.00,0,Wunderground v.1.15,2013-08-29 05:00:00,
2013-08-29 01:10:00,71.7,71.1,29.83,NNW,348,0.0,0.0,98,0.00,,,0.00,0,Wunderground v.1.15,2013-08-29 05:10:00,
2013-08-29 01:20:00,71.6,71.0,29.83,North,350,1.0,1.0,98,0.00,,,0.00,0,Wunderground v.1.15,2013-08-29 05:20:00,
2013-08-29 01:30:00,71.5,70.9,29.83,North,350,0.0,0.0,98,0.00,,,0.00,0,Wunderground v.1.15,2013-08-29 05:30:00,
2013-08-29 01:40:00,71.5,70.9,29.83,North,350,0.0,0.0,98,0.00,,,0.00,0,Wunderground v.1.15,2013-08-29 05:40:00,
2013-08-29 01:50:00,71.3,70.7,29.84,North,350,0.0,0.0,98,0.00,,,0.00,0,Wunderground v.1.15,2013-08-29 05:50:00,
2013-08-29 02:00:00,71.1,70.5,29.84,North,350,0.0,0.0,98,0.00,,,0.00,0,Wunderground v.1.15,2013-08-29 06:00:00,
2013-08-29 02:10:00,70.7,70.1,29.84,North,350,0.0,0.0,98,0.00,,,0.00,0,Wunderground v.1.15,2013-08-29 06:10:00,
2013-08-29 02:20:00,70.4,69.8,29.84,North,350,0.0,0.0,98,0.00,,,0.00,0,Wunderground v.1.15,2013-08-29 06:20:00,
2013-08-29 02:30:00,70.4,69.8,29.84,North,350,0.0,0.0,98,0.00,,,0.00,0,Wunderground v.1.15,2013-08-29 06:30:00,
2013-08-29 02:40:00,70.7,70.1,29.84,NNE,15,0.0,1.0,98,0.00,,,0.00,0,Wunderground v.1.15,2013-08-29 06:40:00,
2013-08-29 02:50:00,70.8,70.2,29.84,North,5,0.0,0.0,98,0.00,,,0.00,0,Wunderground v.1.15,2013-08-29 06:50:00,
2013-08-29 03:00:00,70.9,70.3,29.85,North,5,0.0,0.0,98,0.00,,,0.00,0,Wunderground v.1.15,2013-08-29 07:00:00,
2013-08-29 03:10:00,70.8,70.2,29.85,North,5,0.0,0.0,98,0.00,,,0.00,0,Wunderground v.1.15,2013-08-29 07:10:00,
2013-08-29 03:20:00,70.8,70.2,29.85,North,5,0.0,0.0,98,0.00,,,0.00,0,Wunderground v.1.15,2013-08-29 07:20:00,
2013-08-29 03:30:00,70.8,70.2,29.85,North,5,0.0,0.0,98,0.00,,,0.01,0,Wunderground v.1.15,2013-08-29 07:30:00,
2013-08-29 03:40:00,70.8,70.2,29.85,North,5,0.0,0.0,98,0.00,,,0.01,0,Wunderground v.1.15,2013-08-29 07:40:00,
2013-08-29 03:50:00,70.8,70.2,29.85,North,5,0.0,0.0,98,0.00,,,0.01,0,Wunderground v.1.15,2013-08-29 07:50:00,
2013-08-29 04:00:00,70.9,70.3,29.85,North,5,0.0,0.0,98,0.00,,,0.01,0,Wunderground v.1.15,2013-08-29 08:00:00,
2013-08-29 04:10:00,70.9,70.3,29.85,North,5,0.0,0.0,98,0.00,,,0.01,0,Wunderground v.1.15,2013-08-29 08:10:00,
2013-08-29 04:20:00,70.9,70.3,29.85,North,5,0.0,0.0,98,0.00,,,0.01,0,Wunderground v.1.15,2013-08-29 08:20:00,
2013-08-29 04:30:00,70.8,70.2,29.85,North,5,0.0,0.0,98,0.00,,,0.01,0,Wunderground v.1.15,2013-08-29 08:30:00,
2013-08-29 04:40:00,70.9,70.3,29.86,North,5,0.0,0.0,98,0.00,,,0.01,0,Wunderground v.1.15,2013-08-29 08:40:00,
2013-08-29 04:50:00,70.9,70.3,29.86,North,5,0.0,0.0,98,0.00,,,0.01,0,Wunderground v.1.15,2013-08-29 08:50:00,
2013-08-29 05:00:00,70.8,70.2,29.87,North,5,0.0,0.0,98,0.00,,,0.01,0,Wunderground v.1.15,2013-08-29 09:00:00,
2013-08-29 05:10:00,70.7,70.1,29.87,North,5,0.0,0.0,98,0.00,,,0.01,0,Wunderground v.1.15,2013-08-29 09:10:00,
2013-08-29 05:20:00,70.7,70.1,29.87,North,5,0.0,0.0,98,0.00,,,0.01,0,Wunderground v.1.15,2013-08-29 09:20:00,
2013-08-29 05:30:00,70.7,70.1,29.87,North,5,0.0,0.0,98,0.00,,,0.01,0,Wunderground v.1.15,2013-08-29 09:30:00,
2013-08-29 05:40:00,70.8,70.2,29.88,North,5,0.0,0.0,98,0.00,,,0.01,0,Wunderground v.1.15,2013-08-29 09:40:00,
2013-08-29 05:50:00,70.9,70.3,29.88,North,5,0.0,0.0,98,0.00,,,0.01,0,Wunderground v.1.15,2013-08-29 09:50:00,
2013-08-29 06:00:00,71.0,70.4,29.88,North,5,0.0,0.0,98,0.00,,,0.01,0,Wunderground v.1.15,2013-08-29 10:00:00,
2013-08-29 06:10:00,71.0,70.4,29.88,North,5,0.0,0.0,98,0.00,,,0.01,0,Wunderground v.1.15,2013-08-29 10:10:00,
2013-08-29 06:20:00,71.1,70.5,29.89,North,5,0.0,0.0,98,0.00,,,0.01,0,Wunderground v.1.15,2013-08-29 10:20:00,
2013-08-29 06:30:00,71.1,70.5,29.89,North,5,0.0,0.0,98,0.00,,,0.01,0,Wunderground v.1.15,2013-08-29 10:30:00,
2013-08-29 06:40:00,71.2,70.6,29.90,North,5,0.0,0.0,98,0.00,,,0.01,0,Wunderground v.1.15,2013-08-29 10:40:00,
2013-08-29 06:50:00,71.2,70.6,29.90,North,5,0.0,0.0,98,0.00,,,0.01,11,Wunderground v.1.15,2013-08-29 10:50:00,
2013-08-29 07:00:00,71.2,70.6,29.91,North,5,0.0,0.0,98,0.00,,,0.01,26,Wunderground v.1.15,2013-08-29 11:00:00,
2013-08-29 07:10:00,71.3,70.7,29.91,North,5,0.0,0.0,98,0.00,,,0.01,37,Wunderground v.1.15,2013-08-29 11:10:00,
2013-08-29 07:20:00,71.4,70.8,29.92,North,5,0.0,0.0,98,0.00,,,0.01,35,Wunderground v.1.15,2013-08-29 11:20:00,
2013-08-29 07:30:00,71.5,70.9,29.92,North,5,0.0,0.0,98,0.00,,,0.01,25,Wunderground v.1.15,2013-08-29 11:30:00,
2013-08-29 07:40:00,71.4,70.8,29.93,North,5,0.0,0.0,98,0.00,,,0.01,35,Wunderground v.1.15,2013-08-29 11:40:00,
2013-08-29 07:50:00,71.6,71.0,29.93,North,5,0.0,4.0,98,0.00,,,0.01,86,Wunderground v.1.15,2013-08-29 11:50:00,
2013-08-29 08:00:00,71.7,71.1,29.93,NNE,33,1.0,1.0,98,0.00,,,0.01,44,Wunderground v.1.15,2013-08-29 12:00:00,
2013-08-29 08:10:00,71.6,71.0,29.94,NE,42,0.0,0.0,98,0.00,,,0.01,74,Wunderground v.1.15,2013-08-29 12:10:00,
2013-08-29 08:20:00,71.6,71.0,29.94,NE,50,0.0,0.0,98,0.00,,,0.01,40,Wunderground v.1.15,2013-08-29 12:20:00,
2013-08-29 08:30:00,71.5,70.9,29.94,NE,53,0.0,0.0,98,0.00,,,0.01,69,Wunderground v.1.15,2013-08-29 12:30:00,
2013-08-29 08:40:00,71.8,71.2,29.94,NE,46,0.0,0.0,98,0.00,,,0.01,104,Wunderground v.1.15,2013-08-29 12:40:00,
2013-08-29 08:50:00,71.9,71.3,29.95,ENE,61,0.0,0.0,98,0.00,,,0.01,148,Wunderground v.1.15,2013-08-29 12:50:00,
2013-08-29 09:00:00,72.2,71.6,29.95,NNE,19,1.0,2.0,98,0.00,,,0.01,239,Wunderground v.1.15,2013-08-29 13:00:00,
2013-08-29 09:10:00,72.6,72.0,29.95,NNE,21,1.0,1.0,98,0.00,,,0.01,262,Wunderground v.1.15,2013-08-29 13:10:00,
2013-08-29 09:20:00,72.8,71.6,29.95,NE,51,0.0,0.0,96,0.00,,,0.01,281,Wunderground v.1.15,2013-08-29 13:20:00,
2013-08-29 09:30:00,73.6,72.1,29.95,North,360,1.0,6.0,95,0.00,,,0.01,371,Wunderground v.1.15,2013-08-29 13:30:00,
2013-08-29 09:40:00,73.5,71.0,29.95,ENE,57,1.0,1.0,92,0.00,,,0.01,130,Wunderground v.1.15,2013-08-29 13:40:00,
2013-08-29 09:50:00,73.5,70.7,29.96,NNE,12,1.0,1.0,91,0.00,,,0.01,102,Wunderground v.1.15,2013-08-29 13:50:00,
2013-08-29 10:00:00,73.5,71.0,29.96,NE,49,0.0,2.0,92,0.00,,,0.01,105,Wunderground v.1.15,2013-08-29 14:00:00,
2013-08-29 10:10:00,73.4,70.6,29.96,NNW,340,0.0,0.0,91,0.00,,,0.01,128,Wunderground v.1.15,2013-08-29 14:10:00,
2013-08-29 10:20:00,73.8,71.0,29.97,NE,34,0.0,0.0,91,0.00,,,0.01,255,Wunderground v.1.15,2013-08-29 14:20:00,
2013-08-29 10:30:00,74.3,70.8,29.97,NE,54,0.0,0.0,89,0.00,,,0.01,248,Wunderground v.1.15,2013-08-29 14:30:00,
2013-08-29 10:40:00,74.4,70.6,29.97,North,360,0.0,0.0,88,0.00,,,0.01,186,Wunderground v.1.15,2013-08-29 14:40:00,
2013-08-29 10:50:00,74.7,70.6,29.97,NE,40,0.0,0.0,87,0.00,,,0.01,207,Wunderground v.1.15,2013-08-29 14:50:00,
2013-08-29 11:00:00,75.3,71.2,29.97,North,355,0.0,0.0,87,0.00,,,0.01,264,Wunderground v.1.15,2013-08-29 15:00:00,
2013-08-29 11:10:00,75.9,71.4,29.98,ENE,57,0.0,0.0,86,0.00,,,0.01,408,Wunderground v.1.15,2013-08-29 15:10:00,
2013-08-29 11:20:00,76.0,70.8,29.98,ENE,69,0.0,0.0,84,0.00,,,0.01,281,Wunderground v.1.15,2013-08-29 15:20:00,
2013-08-29 11:30:00,76.1,71.3,29.97,North,360,0.0,0.0,85,0.00,,,0.01,262,Wunderground v.1.15,2013-08-29 15:30:00,
2013-08-29 11:40:00,76.0,71.2,29.98,North,360,0.0,3.0,85,0.00,,,0.01,229,Wunderground v.1.15,2013-08-29 15:40:00,
2013-08-29 11:50:00,76.0,70.8,29.98,North,360,0.0,0.0,84,0.00,,,0.01,246,Wunderground v.1.15,2013-08-29 15:50:00,
2013-08-29 12:00:00,76.6,71.7,29.98,NNE,12,0.0,0.0,85,0.00,,,0.01,439,Wunderground v.1.15,2013-08-29 16:00:00,
2013-08-29 12:10:00,78.0,72.4,29.98,NE,42,0.0,3.0,83,0.00,,,0.01,299,Wunderground v.1.15,2013-08-29 16:10:00,
2013-08-29 12:20:00,78.0,71.7,29.98,North,5,1.0,1.0,81,0.00,,,0.01,919,Wunderground v.1.15,2013-08-29 16:20:00,
2013-08-29 12:30:00,78.9,71.8,29.97,NNW,337,1.0,2.0,79,0.00,,,0.01,751,Wunderground v.1.15,2013-08-29 16:30:00,
2013-08-29 12:40:00,78.8,72.1,29.98,NNE,32,1.0,1.0,80,0.00,,,0.01,338,Wunderground v.1.15,2013-08-29 16:40:00,
2013-08-29 12:50:00,78.1,71.1,29.97,North,355,1.0,1.0,79,0.00,,,0.01,930,Wunderground v.1.15,2013-08-29 16:50:00,
2013-08-29 13:00:00,79.6,72.5,29.97,North,360,1.0,2.0,79,0.00,,,0.01,998,Wunderground v.1.15,2013-08-29 17:00:00,
2013-08-29 13:10:00,78.7,72.0,29.97,North,5,1.0,1.0,80,0.00,,,0.01,833,Wunderground v.1.15,2013-08-29 17:10:00,
2013-08-29 13:20:00,79.7,72.6,29.97,East,98,1.0,1.0,79,0.00,,,0.01,872,Wunderground v.1.15,2013-08-29 17:20:00,
2013-08-29 13:30:00,80.6,72.7,29.97,NNE,24,1.0,1.0,77,0.00,,,0.01,554,Wunderground v.1.15,2013-08-29 17:30:00,
2013-08-29 13:40:00,80.4,71.7,29.97,NE,38,2.0,2.0,75,0.00,,,0.01,274,Wunderground v.1.15,2013-08-29 17:40:00,
2013-08-29 13:50:00,79.1,72.0,29.97,ENE,75,1.0,1.0,79,0.00,,,0.01,232,Wunderground v.1.15,2013-08-29 17:50:00,
2013-08-29 14:00:00,79.8,71.6,29.97,NNE,28,0.0,0.0,76,0.00,,,0.01,849,Wunderground v.1.15,2013-08-29 18:00:00,
2013-08-29 14:10:00,81.0,71.9,29.97,SE,132,1.0,3.0,74,0.00,,,0.01,907,Wunderground v.1.15,2013-08-29 18:10:00,
2013-08-29 14:20:00,81.1,71.6,29.96,SE,134,1.0,1.0,73,0.00,,,0.01,357,Wunderground v.1.15,2013-08-29 18:20:00,
2013-08-29 14:30:00,80.1,72.6,29.96,ENE,71,2.0,2.0,78,0.00,,,0.01,162,Wunderground v.1.15,2013-08-29 18:30:00,
2013-08-29 14:40:00,79.7,71.8,29.96,East,80,0.0,0.0,77,0.00,,,0.01,775,Wunderground v.1.15,2013-08-29 18:40:00,
2013-08-29 14:50:00,81.1,71.6,29.96,NNW,346,0.0,0.0,73,0.00,,,0.01,747,Wunderground v.1.15,2013-08-29 18:50:00,
2013-08-29 15:00:00,81.8,72.3,29.95,NE,47,1.0,1.0,73,0.00,,,0.01,789,Wunderground v.1.15,2013-08-29 19:00:00,
2013-08-29 15:10:00,81.5,72.4,29.96,NE,40,1.0,1.0,74,0.00,,,0.01,197,Wunderground v.1.15,2013-08-29 19:10:00,
2013-08-29 15:20:00,80.6,71.1,29.95,ESE,116,1.0,1.0,73,0.00,,,0.01,724,Wunderground v.1.15,2013-08-29 19:20:00,
2013-08-29 15:30:00,81.8,71.1,29.95,ESE,111,1.0,2.0,70,0.00,,,0.01,163,Wunderground v.1.15,2013-08-29 19:30:00,
2013-08-29 15:40:00,82.0,71.7,29.95,ENE,65,1.0,2.0,71,0.00,,,0.01,671,Wunderground v.1.15,2013-08-29 19:40:00,
2013-08-29 15:50:00,82.2,71.0,29.95,ESE,104,1.0,1.0,69,0.00,,,0.01,592,Wunderground v.1.15,2013-08-29 19:50:00,
2013-08-29 16:00:00,82.0,71.2,29.95,ESE,107,0.0,0.0,70,0.00,,,0.01,633,Wunderground v.1.15,2013-08-29 20:00:00,
2013-08-29 16:10:00,82.5,70.4,29.95,East,79,1.0,1.0,67,0.00,,,0.01,671,Wunderground v.1.15,2013-08-29 20:10:00,
2013-08-29 16:20:00,83.1,71.9,29.94,North,5,0.0,3.0,69,0.00,,,0.01,640,Wunderground v.1.15,2013-08-29 20:20:00,
2013-08-29 16:30:00,83.3,71.2,29.95,ENE,59,2.0,2.0,67,0.00,,,0.01,522,Wunderground v.1.15,2013-08-29 20:30:00,
2013-08-29 16:40:00,82.3,72.8,29.94,NE,44,0.0,0.0,73,0.00,,,0.01,485,Wunderground v.1.15,2013-08-29 20:40:00,
2013-08-29 16:50:00,82.3,71.1,29.95,SE,128,1.0,1.0,69,0.00,,,0.01,452,Wunderground v.1.15,2013-08-29 20:50:00,
2013-08-29 17:00:00,82.7,71.5,29.95,SE,134,0.0,0.0,69,0.00,,,0.01,427,Wunderground v.1.15,2013-08-29 21:00:00,
2013-08-29 17:10:00,82.7,70.2,29.95,East,82,1.0,1.0,66,0.00,,,0.01,406,Wunderground v.1.15,2013-08-29 21:10:00,
2013-08-29 17:20:00,82.8,70.3,29.95,SE,140,0.0,0.0,66,0.00,,,0.01,315,Wunderground v.1.15,2013-08-29 21:20:00,
2013-08-29 17:30:00,82.8,71.2,29.95,ESE,119,0.0,0.0,68,0.00,,,0.01,348,Wunderground v.1.15,2013-08-29 21:30:00,
2013-08-29 17:40:00,82.7,71.1,29.95,ESE,119,0.0,0.0,68,0.00,,,0.01,323,Wunderground v.1.15,2013-08-29 21:40:00,
2013-08-29 17:50:00,82.6,71.0,29.95,East,86,0.0,0.0,68,0.00,,,0.01,299,Wunderground v.1.15,2013-08-29 21:50:00,
2013-08-29 18:00:00,82.5,70.9,29.94,SE,134,1.0,1.0,68,0.00,,,0.01,220,Wunderground v.1.15,2013-08-29 22:00:00,
2013-08-29 18:10:00,81.9,71.2,29.95,SE,134,0.0,0.0,70,0.00,,,0.01,113,Wunderground v.1.15,2013-08-29 22:10:00,
2013-08-29 18:20:00,81.7,71.0,29.95,SE,134,0.0,0.0,70,0.00,,,0.01,74,Wunderground v.1.15,2013-08-29 22:20:00,
2013-08-29 18:30:00,81.1,70.8,29.95,SE,134,0.0,3.0,71,0.00,,,0.01,63,Wunderground v.1.15,2013-08-29 22:30:00,
2013-08-29 18:40:00,80.5,71.0,29.95,East,99,0.0,0.0,73,0.00,,,0.01,51,Wunderground v.1.15,2013-08-29 22:40:00,
2013-08-29 18:50:00,80.3,71.3,29.95,ESE,123,0.0,0.0,74,0.00,,,0.01,44,Wunderground v.1.15,2013-08-29 22:50:00,
2013-08-29 19:00:00,79.7,71.5,29.95,ESE,123,0.0,0.0,76,0.00,,,0.01,35,Wunderground v.1.15,2013-08-29 23:00:00,
2013-08-29 19:10:00,79.1,71.3,29.95,ESE,123,0.0,0.0,77,0.00,,,0.01,28,Wunderground v.1.15,2013-08-29 23:10:00,
2013-08-29 19:20:00,78.7,71.3,29.95,ESE,123,0.0,0.0,78,0.00,,,0.01,21,Wunderground v.1.15,2013-08-29 23:20:00,
2013-08-29 19:30:00,78.0,71.7,29.95,ESE,123,0.0,0.0,81,0.00,,,0.01,14,Wunderground v.1.15,2013-08-29 23:30:00,
2013-08-29 19:40:00,76.8,71.6,29.95,ESE,123,0.0,0.0,84,0.00,,,0.01,7,Wunderground v.1.15,2013-08-29 23:40:00,
2013-08-29 19:50:00,75.7,71.2,29.95,ESE,123,0.0,0.0,86,0.00,,,0.01,0,Wunderground v.1.15,2013-08-29 23:50:00,
2013-08-29 20:00:00,74.5,70.7,29.96,ESE,123,0.0,0.0,88,0.00,,,0.01,0,Wunderground v.1.15,2013-08-30 00:00:00,
2013-08-29 20:10:00,73.7,70.3,29.95,ESE,123,0.0,0.0,89,0.00,,,0.01,0,Wunderground v.1.15,2013-08-30 00:10:00,
2013-08-29 20:20:00,73.0,69.9,29.95,ESE,123,0.0,0.0,90,0.00,,,0.01,0,Wunderground v.1.15,2013-08-30 00:20:00,
2013-08-29 20:30:00,72.5,70.0,29.95,ESE,123,0.0,0.0,92,0.00,,,0.01,0,Wunderground v.1.15,2013-08-30 00:30:00,
2013-08-29 20:40:00,72.4,70.3,29.96,ESE,123,0.0,0.0,93,0.00,,,0.01,0,Wunderground v.1.15,2013-08-30 00:40:00,
2013-08-29 20:50:00,71.7,69.3,29.96,ESE,123,0.0,0.0,92,0.00,,,0.01,0,Wunderground v.1.15,2013-08-30 00:50:00,
2013-08-29 21:00:00,71.2,69.1,29.96,ESE,123,0.0,0.0,93,0.00,,,0.01,0,Wunderground v.1.15,2013-08-30 01:00:00,
2013-08-29 21:10:00,70.9,69.1,29.97,ESE,123,0.0,0.0,94,0.00,,,0.01,0,Wunderground v.1.15,2013-08-30 01:10:00,
2013-08-29 21:20:00,70.6,68.8,29.97,ESE,123,0.0,0.0,94,0.00,,,0.01,0,Wunderground v.1.15,2013-08-30 01:20:00,
2013-08-29 21:30:00,70.3,68.8,29.97,ESE,123,0.0,0.0,95,0.00,,,0.01,0,Wunderground v.1.15,2013-08-30 01:30:00,
2013-08-29 21:40:00,70.0,68.5,29.97,ESE,123,0.0,0.0,95,0.00,,,0.01,0,Wunderground v.1.15,2013-08-30 01:40:00,
2013-08-29 21:50:00,69.6,68.4,29.98,ESE,123,0.0,0.0,96,0.00,,,0.01,0,Wunderground v.1.15,2013-08-30 01:50:00,
2013-08-29 22:00:00,69.6,68.4,29.98,ESE,123,0.0,0.0,96,0.00,,,0.01,0,Wunderground v.1.15,2013-08-30 02:00:00,
2013-08-29 22:10:00,69.3,67.8,29.98,ESE,123,0.0,0.0,95,0.00,,,0.01,0,Wunderground v.1.15,2013-08-30 02:10:00,
2013-08-29 22:20:00,69.1,67.9,29.97,ESE,123,0.0,0.0,96,0.00,,,0.01,0,Wunderground v.1.15,2013-08-30 02:20:00,
2013-08-29 22:30:00,69.1,67.9,29.97,ESE,123,0.0,0.0,96,0.00,,,0.01,0,Wunderground v.1.15,2013-08-30 02:30:00,
2013-08-29 22:40:00,68.7,67.5,29.97,ESE,123,0.0,0.0,96,0.00,,,0.01,0,Wunderground v.1.15,2013-08-30 02:40:00,
2013-08-29 22:50:00,68.6,67.4,29.97,ESE,123,0.0,0.0,96,0.00,,,0.01,0,Wunderground v.1.15,2013-08-30 02:50:00,
2013-08-29 23:00:00,68.3,67.1,29.97,ESE,123,0.0,0.0,96,0.00,,,0.01,0,Wunderground v.1.15,2013-08-30 03:00:00,
2013-08-29 23:10:00,68.0,66.8,29.97,ESE,123,0.0,0.0,96,0.00,,,0.01,0,Wunderground v.1.15,2013-08-30 03:10:00,
2013-08-29 23:20:00,67.9,66.7,29.97,ESE,123,0.0,0.0,96,0.00,,,0.01,0,Wunderground v.1.15,2013-08-30 03:20:00,
2013-08-29 23:30:00,68.1,66.9,29.97,ESE,123,0.0,0.0,96,0.00,,,0.01,0,Wunderground v.1.15,2013-08-30 03:30:00,
2013-08-29 23:40:00,68.3,67.4,29.98,ESE,123,0.0,0.0,97,0.00,,,0.01,0,Wunderground v.1.15,2013-08-30 03:40:00,
2013-08-29 23:50:00,68.1,67.2,29.98,ESE,123,0.0,0.0,97,0.00,,,0.01,0,Wunderground v.1.15,2013-08-30 03:50:00,